Powrót do katalogu

DMSP 5D-2 F13 DEB

AktywnySSO
NORAD 40412·DEBRIS·🇺🇸 United States

Wystrzelony Mar 24, 1995 z Vandenberg Space Force Base

Loading…

Następne Przeloty (najbliższe 24 godziny)

TLE

ŚwieżeSource: Space-Track

Epoka: Sep 14, 2026, 06:06 UTC

1 40412U 95015Z   26257.25484282  .00000141  00000-0  84725-4 0  9994
2 40412  98.7053 270.5632 0019930 111.5849 248.7454 14.21037328598581

Śledź DMSP 5D-2 F13 DEB w czasie rzeczywistym z AllMySat

Download on the App Store